Martha's Vineyard, MA

2:23 AM EST on December 18, 2017 (GMT -0500)
Martha's Vineyard

Weather History for KMVY - January, 2014

Change the Weather History Date:

Saturday, January 4, 2014

  Actual Average Record
Temperature  
Mean Temperature 16 °F -  
Max Temperature 39 °F 39 °F 60 °F (1998)
Min Temperature -7 °F 24 °F -7 °F (2014)
Degree Days  
Heating Degree Days 49    
Moisture  
Dew Point 12 °F    
Average Humidity 67    
Maximum Humidity 83    
Minimum Humidity 53    
Precipitation  
Precipitation 0.00 in - - ()
Sea Level Pressure  
Sea Level Pressure 30.41 in    
Wind  
Wind Speed 8 mph (WSW)    
Max Wind Speed 20 mph    
Max Gust Speed 28 mph    
Visibility 10 miles    
Events Snow    
Averages and records for this station are not official NWS values.
T = Trace of Precipitation, MM = Missing Value Source: NWS Daily Summary

Daily Weather History Graph

Daily Weather History Graph

Search for Another Location

Airport or City:

Trip Planner

Search our weather history database for the weather conditions in past years. The results will help you decide how hot, cold, wet, or windy it might be!

Date:

Astronomy

Jan. 04, 2014 Rise Set
Actual Time 7:08 AM EST 4:26 PM EST
Civil Twilight 6:37 AM EST 4:57 PM EST
Nautical Twilight 6:03 AM EST 5:32 PM EST
Astronomical Twilight 5:29 AM EST 6:05 PM EST
Moon 9:09 AM EST (1/4) 8:45 PM EST (1/4)
Length of Visible Light 10h 19m
Length of Day
9h 17m
Waxing Crescent, 15% of the Moon is Illuminated
Jan 4
Waxing Crescent
Jan 7
First Quarter
Jan 15
Full
Jan 24
Last Quarter
Jan 30
New

Hourly Weather History & Observations

Time (EST) Temp. Windchill Dew Point Humidity Pressure Visibility Wind Dir Wind Speed Gust Speed Precip Events Conditions
12:53 AM 5.0 °F -5.6 °F -8.0 °F 55% 30.42 in 10.0 mi NNW 5.8 mph - N/A Snow Blowing Snow
1:53 AM 3.9 °F -6.9 °F -6.0 °F 64% 30.44 in 10.0 mi NW 5.8 mph - N/A Snow Blowing Snow
2:53 AM 3.9 °F -8.2 °F -5.1 °F 66% 30.45 in 10.0 mi NW 6.9 mph - N/A Snow Blowing Snow
3:53 AM 3.9 °F -3.4 °F -5.1 °F 66% 30.47 in 10.0 mi West 3.5 mph - N/A Snow Blowing Snow
4:53 AM -0.9 °F - -6.0 °F 79% 30.45 in 10.0 mi Calm Calm - N/A Snow Blowing Snow
5:53 AM -5.1 °F - -9.0 °F 83% 30.47 in 10.0 mi Calm Calm - N/A Snow Blowing Snow
6:53 AM -7.1 °F - -11.9 °F 79% 30.49 in 10.0 mi Calm Calm - N/A Snow Blowing Snow
7:53 AM -5.1 °F - -9.9 °F 80% 30.51 in 10.0 mi Calm Calm - N/A Snow Blowing Snow
8:53 AM 12.9 °F 5.2 °F 6.1 °F 74% 30.53 in 10.0 mi West 4.6 mph - N/A Snow Blowing Snow
9:53 AM 21.0 °F 10.6 °F 12.0 °F 68% 30.52 in 10.0 mi WSW 9.2 mph - N/A Snow Blowing Snow
10:53 AM 24.1 °F 13.7 °F 12.9 °F 62% 30.50 in 10.0 mi SW 10.4 mph - N/A Snow Blowing Snow
11:53 AM 26.1 °F 14.5 °F 10.9 °F 53% 30.47 in 10.0 mi SW 13.8 mph 21.9 mph N/A   Partly Cloudy
12:53 PM 27.0 °F 17.3 °F 15.1 °F 61% 30.44 in 10.0 mi SW 10.4 mph 17.3 mph N/A   Clear
1:53 PM 28.9 °F 17.7 °F 17.1 °F 61% 30.42 in 10.0 mi SW 15.0 mph 19.6 mph N/A   Clear
2:31 PM 30.2 °F 20.2 °F 19.4 °F 64% 30.40 in 10.0 mi SW 12.7 mph 18.4 mph N/A   Mostly Cloudy
2:53 PM 30.9 °F 20.7 °F 21.0 °F 67% 30.40 in 10.0 mi SW 13.8 mph 19.6 mph N/A   Overcast
3:53 PM 33.1 °F 23.4 °F 21.9 °F 64% 30.38 in 10.0 mi SW 13.8 mph 23.0 mph N/A   Mostly Cloudy
4:53 PM 34.0 °F 23.4 °F 24.1 °F 67% 30.36 in 10.0 mi SW 17.3 mph - N/A   Mostly Cloudy
5:09 PM 33.8 °F 22.5 °F 24.8 °F 70% 30.36 in 10.0 mi SSW 19.6 mph 26.5 mph N/A   Scattered Clouds
5:53 PM 35.1 °F 24.5 °F 25.0 °F 67% 30.35 in 10.0 mi SW 18.4 mph 27.6 mph N/A   Partly Cloudy
6:53 PM 36.0 °F 26.7 °F 26.1 °F 67% 30.35 in 10.0 mi SW 15.0 mph 23.0 mph N/A   Partly Cloudy
7:53 PM 37.0 °F 27.4 °F 27.0 °F 67% 30.34 in 10.0 mi SW 17.3 mph 23.0 mph N/A   Partly Cloudy
8:53 PM 37.9 °F 29.6 °F 28.0 °F 68% 30.32 in 10.0 mi SW 13.8 mph - N/A   Clear
9:53 PM 39.0 °F 31.4 °F 28.9 °F 67% 30.32 in 10.0 mi SW 12.7 mph - N/A   Clear
10:53 PM 39.9 °F 32.9 °F 30.0 °F 68% 30.31 in 10.0 mi SW 11.5 mph - N/A   Clear
11:53 PM 39.9 °F 33.4 °F 30.0 °F 68% 30.30 in 10.0 mi SW 10.4 mph - N/A   Clear